Regional Weather Roundup
Issued by NWS

Home | Current Version | Previous Version | Text Only | Print | Product List | Glossary On
Versions: 1 2 3 4 5 6 7 8 9 10 11 12 13 14 15 16 17 18 19 20 21 22 23 24 25 26 27 28 29 30 31 32 33 34 35 36 37 38 39 40 41 42 43 44 45 46 47 48 49 50
212
ASUS43 KDTX 160910
RWRMI
MICHIGAN HOURLY REGIONAL WEATHER ROUNDUP
NATIONAL WEATHER SERVICE DETROIT/PONTIAC MI
500 AM EDT WED AUG 16 2017

NOTE: "FAIR" INDICATES FEW OR NO CLOUDS BELOW 12,000 FEET WITH NO
SIGNIFICANT WEATHER AND/OR OBSTRUCTION TO VISIBILITY.

MIZ047>049-052>055-059>063-066>070-074>076-081>083-161000-
SOUTHEAST LOWER MICHIGAN

CITY           SKY/WX    TMP DP  RH WIND       PRES   REMARKS
ADRIAN         PTCLDY    63  61  93 CALM      30.04R
ALMA           CLEAR     55  54  95 CALM      30.05R FOG
ANN ARBOR      CLEAR     61  61 100 CALM      30.03S
BAD AXE        CLOUDY    57  55  95 CALM      30.06S
CARO           CLEAR     54  53  95 CALM      30.05R FOG
DETROIT CITY   CLEAR     63  57  81 CALM      30.03F
DETROIT        MOCLDY    64  60  87 N3        30.03F
FLINT          PTCLDY    62  57  83 E3        30.04S
GROSSE ILE     CLEAR     65  58  76 NE3       30.02S
HILLSDALE      CLOUDY    64  63  94 SE3       30.03S FOG
HOWELL         CLEAR     61  59  92 CALM      30.04R

CITY           SKY/WX    TMP DP  RH WIND       PRES   REMARKS
JACKSON          N/A    N/A N/A N/A MISG      30.03S
LAMBERTVILLE   CLEAR     62  61  97 CALM      30.02R
LANSING        MOCLDY    65  60  84 SE5       30.03S
LAPEER         FAIR      56  55  96 CALM      30.05S
MASON          PTCLDY    64  61  88 CALM      30.03S
MONROE         CLEAR     62  60  94 CALM      30.02S
MT. CLEMENS    MOCLDY    61  61 100 CALM      30.02S
PONTIAC        CLEAR     60  59  96 NE3       30.03F
PORT HOPE        N/A     60  58  92 CALM      30.04R
PORT HURON     FOG       54  52  94 CALM      30.05S VSB 1
TRI CITIES     PTCLDY    60  59  96 NE6       30.06R
MIDLAND        MOCLDY    58  58 100 CALM      30.05R
TROY           PTCLDY    64  59  82 CALM      30.06S
SAGINAW HB     PTCLDY    55  54  94 NE3       30.04S
$$
MIZ043>046-050>051-056>058-064>065-071>073-077>080-161000-
SOUTHWEST LOWER MICHIGAN

CITY           SKY/WX    TMP DP  RH WIND       PRES   REMARKS
BATTLE CREEK   PTCLDY    67  64  90 SE7       30.02S
BENTON HARBOR  CLEAR     59  56  89 CALM      29.99S
BIG RAPIDS     PTCLDY    56  54  91 CALM      30.04S
COLDWATER      CLEAR     64  64 100 SE3       30.02R
FREMONT        MOCLDY    62  60  91 E3        30.02S
HOLLAND        PTCLDY    62  59  90 E3        30.01R
GRAND RAPIDS   CLOUDY    63  61  93 NE6       30.01S
IONIA          FAIR      61  59  94 E3        30.02S
KALAMAZOO      CLEAR     64  60  87 CALM      30.01S FOG
LUDINGTON      CLOUDY    57  56  95 CALM      30.02S
MARSHALL       MOCLDY    64  63  98 E3        30.02S
MOUNT PLEASANT FOG       59  57  94 CALM      30.04R VSB 1/2
MUSKEGON       PTCLDY    63  58  83 E3        30.01S
SOUTH HAVEN    CLEAR     58  57  96 CALM      30.00R
$$
MIZ016>042-161000-
NORTHERN LOWER MICHIGAN

CITY           SKY/WX    TMP DP  RH WIND       PRES   REMARKS
ALPENA         CLOUDY    56  56 100 NE6       30.08R
BEAVER ISLAND  CLEAR     61  60  96 E8        30.06S
BELLAIRE       PTCLDY    53  51  95 CALM      30.05S
CADILLAC       MOCLDY    60  56  88 E6        30.05S
CHARLEVOIX     PTCLDY    62  62 100 E7        30.07F
FRANKFORT      CLOUDY    59  59 100 CALM      30.03S
GAYLORD        MOCLDY    55  51  86 NE3       30.07S
GRAYLING       CLOUDY    53  51  94 CALM      30.08R
HARBOR SPRINGS CLOUDY    58  56  94 E6        30.06S
HOUGHTON LAKE  CLOUDY    57  55  93 E3        30.07R
OSCODA         CLOUDY    59  58  94 W9        30.05R
PELLSTON       CLOUDY    50  50 100 CALM      30.07S FOG
ROGERS CITY    CLEAR     61  58  89 SE3       30.08S
TRAVERSE CITY  CLOUDY    58  56  93 CALM      30.03S
$$
MIZ007>008-015-161000-
EASTERN UPPER MICHIGAN

CITY           SKY/WX    TMP DP  RH WIND       PRES   REMARKS
KINROSS        PTCLDY    55  52  89 E7        30.08S
MACKINAC ISLAN PTCLDY    62  60  91 E10       30.07S
NEWBERRY       FOG       50  49  97 CALM      30.07S VSB 1/2
S. S. MARIE    CLOUDY    55  52  89 E3        30.08S
MUNISING         N/A     50  50 100 S6        30.06S
$$
MIZ004>006-011>014-085-161000-
CENTRAL UPPER MICHIGAN

CITY           SKY/WX    TMP DP  RH WIND       PRES   REMARKS
MANISTIQUE     CLOUDY    54  49  81 CALM      30.06S
ESCANABA       CLOUDY    54  54 100 N3        30.07S FOG
MENOMINEE      CLOUDY    56  55  97 N3        30.06S
SAWYER-GWINN   FOG       51  50  98 CALM      30.09R VSB 1/4
$$
MIZ001>003-009>011-084-161000-
WESTERN UPPER MICHIGAN

CITY           SKY/WX    TMP DP  RH WIND       PRES   REMARKS
IRON MOUNTAIN  CLOUDY    51  48  89 CALM      30.07R
HOUGHTON       PTCLDY    54  52  93 SE8       30.07R
COPPER HARBOR    N/A     55  53  93 CALM      30.07R
IRONWOOD       CLOUDY    53  51  93 E8        30.05S
$$

ABBREVIATIONS USED IN REMARKS
   TC - TEMPERATURE IN CELSIUS
  WCI - WIND CHILL INDEX
   HX - HEAT INDEX
  VSB - VISIBILITY





USA.gov is the U.S. government's official web portal to all federal, state and local government web resources and services.